CW3081 Weather Reports


time (UTC)temp
C
wind
direction
speed
KPH
gust
KPH
rain 1hr
cm
rain 24hr
cm
rain mn
cm
humidity
%
barometer
mb
20260903013055 26 0 0.0 0.0 0.00 0.00 0.00 88 1016.6
20260903011601 27 0 0.0 0.0 0.00 0.00 0.00 87 1016.5
20260903004553 27 0 0.0 0.0 0.00 0.00 0.00 84 1016.5
20260903003100 28 0 0.0 0.0 0.00 0.00 0.00 82 1016.7
20260903001549 28 0 0.0 0.0 0.00 0.00 0.00 82 1016.6
20260903000049 29 0 0.0 0.0 0.00 0.00 0.00 79 1016.6
20260902234559 30 0 0.0 0.0 0.00 0.00 0.00 77 1016.6
20260902233100 30 0 0.0 0.0 0.00 0.00 0.00 74 1016.7
20260902231602 31 0 0.0 0.0 0.00 0.00 0.00 74 1016.6
20260902230052 31 0 0.0 0.0 0.00 0.00 0.00 73 1016.7
20260902224600 32 0 0.0 0.0 0.00 0.00 0.00 67 1016.7
20260902223056 32 0 0.0 0.0 0.00 0.00 0.00 65 1016.8
20260902221554 32 0 0.0 0.0 0.00 0.00 0.00 63 1016.9
20260902220056 32 0 0.0 0.0 0.00 0.00 0.00 59 1017.0
20260902214600 33 0 0.0 0.0 0.00 0.00 0.00 60 1017.0
20260902213103 33 0 0.0 0.0 0.00 0.00 0.00 59 1017.0
20260902211551 33 0 0.0 1.6 0.00 0.00 0.00 57 1017.0
20260902210050 32 0 0.0 1.6 0.00 0.00 0.00 60 1017.0
20260902204601 32 49 0.0 1.6 0.00 0.00 0.00 66 1017.1
20260902203109 32 0 0.0 0.0 0.00 0.00 0.00 67 1017.3
20260902201554 33 0 0.0 1.6 0.00 0.00 0.00 59 1017.4
20260902200055 33 4 0.0 1.6 0.00 0.00 0.00 61 1017.8
20260902194559 33 0 0.0 1.6 0.00 0.00 0.00 58 1017.9
20260902193057 33 82 0.0 1.6 0.00 0.00 0.00 62 1018.1
20260902191554 33 53 1.6 3.2 0.00 0.00 0.00 62 1018.2
20260902190049 34 0 0.0 3.2 0.00 0.00 0.00 57 1018.3
20260902184558 34 38 0.0 3.2 0.00 0.00 0.00 58 1018.4
20260902183111 33 342 0.0 3.2 0.00 0.00 0.00 59 1018.6
20260902181553 33 0 0.0 3.2 0.00 0.00 0.00 60 1018.6
20260902174606 33 0 0.0 3.2 0.00 0.00 0.00 57 1018.9
20260902173053 33 277 0.0 3.2 0.00 0.00 0.00 59 1019.1
20260902171607 32 0 0.0 3.2 0.00 0.00 0.00 59 1019.3
20260902170053 32 0 0.0 1.6 0.00 0.00 0.00 62 1019.6
20260902164553 31 57 0.0 3.2 0.00 0.00 0.00 63 1019.9
20260902163130 31 137 0.0 3.2 0.00 0.00 0.00 66 1020.0
20260902161557 31 0 0.0 3.2 0.00 0.00 0.00 67 1020.1
20260902160055 30 56 0.0 3.2 0.00 0.00 0.00 71 1020.1
20260902154550 30 0 0.0 0.0 0.00 0.00 0.00 73 1020.2
20260902153104 30 0 0.0 0.0 0.00 0.00 0.00 73 1020.3
20260902151554 29 0 0.0 0.0 0.00 0.00 0.00 78 1020.3
20260902150052 28 0 0.0 0.0 0.00 0.00 0.00 77 1020.2
20260902144551 28 0 0.0 0.0 0.00 0.00 0.00 82 1020.2
20260902143102 27 0 0.0 0.0 0.00 0.00 0.00 85 1020.1
20260902141554 26 0 0.0 0.0 0.00 0.00 0.00 89 1020.1
20260902140052 25 0 0.0 0.0 0.00 0.00 0.00 92 1020.0
20260902134554 24 0 0.0 0.0 0.00 0.00 0.00 95 1019.9
20260902133107 23 0 0.0 0.0 0.00 0.00 0.00 97 1019.8
20260902131602 22 0 0.0 0.0 0.00 0.00 0.00 97 1019.8
20260902130051 22 0 0.0 0.0 0.00 0.00 0.00 96 1019.9
20260902124557 -17 0.0 0.0 0.00 0.00 0.00 1019.9
20260902123115 -17 0.0 0.0 0.00 0.00 0.00 1020.0
20260902121559 -17 0.0 0.0 0.00 0.00 0.00 1019.8